LiveATC.Net - Listen to live air traffic control over the Internet!


ICAO: SULS  IATA: PDP   Airport: Capitan Corbeta C A Curbelo International Airport
City: Punta del Este
Country: Uruguay   Continent: South America
SULS METAR Weather: SULS 121400Z 30004KT 260V330 8000 SCT010 OVC070 21/18 Q1012
SULS ADS-B Flight Tracking  (ADSBExchange)
SULS Flight Activity (FlightAware)

SULS Tower
Feed Status: UP   Listeners: 0
Listen in your browser - HTML5 player (in browser, HTML5)
Click here to listen with your own player (launches your MP3 player)
Archive Access: SULS Tower
FacilityFrequency
SULS A/G122.100
SULS Tower118.300
Feed provided by:
Aviación Uruguay - Volemos.org

NOTICE

Unauthorized use prohibited. See LiveATC.net Terms of Service


Airport/ARTCC Code
Frequency Search
(e.g., 124.400, 128.75)
Site-wide search
 


Browse Feeds
Top 50 Feeds
HF Oceanic Feeds
Coverage Map
Bad Weather Areas

LiveATC FAQ

Increase Coverage

Contact LiveATC.net
Press Inquiries

LiveATC on iPhone
LiveATC on Android

LiveATC Mobile
(Mobile browser)

ATC Audio Archives
Interesting Recordings

LiveATC Forums


Home Page
About LiveATC.net


Terms of Use
Privacy Policy

AIRMETs/SIGMETs

FAA Airport Status
NAS Status
Arrival Demand


Server Software By:
Icecast.org
Liquidsoap